sat.trackr.live / text

‹ back to catalog

AJISAI (EGS)

NORAD 16908 · 1986-061A

PAYLOAD ACTIVE UNKNOWN

§ Identity

Operator
Country
JPN
Launch date
1986-08-12
Launch site
TANSC
Launch vehicle
Mass (kg)
RCS (m²)
4.23

Purposes: science

External: N2YO · Heavens-Above · Gunter

§ Orbital elements

Epoch: 2026-05-25T04:09:17.193888Z

Period
115.71 min
Inclination
50.0079°
Eccentricity
0.0011353
Mean motion
12.44516449 rev/d
Perigee alt
1,478.6 km
Apogee alt
1,496.4 km
Semi-major
7,865.7 km
B*
4.7564e-5
RAAN
218.1644°
Arg perigee
122.2282°
Mean anomaly
331.4574°
Rev number
47,752

§ Raw data

AJISAI (EGS)1 16908U 86061A   26145.17311567 -.00000091  00000+0  47564-4 0  99942 16908  50.0079 218.1644 0011353 122.2282 331.4574 12.44516449477527

JSON: /api/v1/satellites/16908 · /tle

For live sub-satellite position, see the globe view (requires WebGL).

§ Visibility from observer

Set your observer location to see the next 7 days of passes ≥ 10°. The values pass through the URL so the page stays shareable.

No JS? Fill the form by hand. The geolocation button needs JavaScript.